Location: Newark
(11.2914°S, 14.4718°E)
Time: 00:45:22
(UTC+00:00)

Tiros 1 despin weight - Visible Passes

Search period start: 19 September 2019 00:00
Search period end: 29 September 2019 00:00
Orbit: 594 x 642 km, 48.2° (Epoch: 17 September)

Date Brightness Start Highest point End Pass type
(mag) Time Alt. Az. Time Alt. Az. Time Alt. Az.
24 Sep ? 18:43:59 10° NNW 18:44:45 15° NNW 18:44:45 15° NNW visible
25 Sep ? 19:00:19 10° NW 19:02:00 23° NW 19:02:00 23° NW visible
26 Sep ? 03:44:25 10° SE 03:45:03 10° SE 03:45:41 10° SE visible
26 Sep ? 17:36:21 10° N 17:39:56 24° NE 17:42:15 16° E visible
26 Sep ? 19:17:41 10° WNW 19:19:25 19° W 19:19:25 19° W visible
27 Sep ? 03:58:02 10° S 04:01:51 24° SE 04:05:40 10° E visible
27 Sep ? 17:52:03 10° NNW 17:56:25 69° NE 17:59:44 17° SE visible
28 Sep ? 04:13:51 10° SSW 04:18:30 61° SE 04:23:07 10° NE visible
28 Sep ? 18:08:47 10° WNW 18:12:58 42° SW 18:17:12 10° SSE visible
